Time,TemperatureF,DewpointF,PressureIn,WindDirection,WindDirectionDegrees,WindSpeedMPH,WindSpeedGustMPH,Humidity,HourlyPrecipIn,Conditions,Clouds,dailyrainin,SolarRadiationWatts/m^2,SoftwareType,DateUTC
2013-07-04 00:02:00,66.8,65.0,30.05,WSW,256,0.0,-999.0,92,-99.99,,,0.00,0,weatherlink.com 1.10,2013-07-04 04:02:00,
2013-07-04 00:17:00,66.4,64.0,30.05,WSW,256,0.0,-999.0,92,-99.99,,,0.00,0,weatherlink.com 1.10,2013-07-04 04:17:00,
2013-07-04 00:32:00,65.9,64.0,30.05,WSW,256,0.0,-999.0,93,-99.99,,,0.00,0,weatherlink.com 1.10,2013-07-04 04:32:00,
2013-07-04 00:47:00,65.5,64.0,30.05,WSW,256,0.0,-999.0,94,-99.99,,,0.00,0,weatherlink.com 1.10,2013-07-04 04:47:00,
2013-07-04 01:02:00,65.2,64.0,30.05,WSW,256,0.0,-999.0,94,-99.99,,,0.00,0,weatherlink.com 1.10,2013-07-04 05:02:00,
2013-07-04 01:17:00,65.0,64.0,30.05,WSW,256,0.0,-999.0,95,-99.99,,,0.00,0,weatherlink.com 1.10,2013-07-04 05:17:00,
2013-07-04 01:32:00,64.6,63.0,30.05,WSW,256,0.0,-999.0,95,-99.99,,,0.00,0,weatherlink.com 1.10,2013-07-04 05:32:00,
2013-07-04 01:47:00,64.4,63.0,30.05,WSW,256,0.0,-999.0,96,-99.99,,,0.00,0,weatherlink.com 1.10,2013-07-04 05:47:00,
2013-07-04 02:02:00,64.2,63.0,30.05,WSW,256,0.0,-999.0,96,-99.99,,,0.00,0,weatherlink.com 1.10,2013-07-04 06:02:00,
2013-07-04 02:17:00,64.1,63.0,30.05,WSW,256,0.0,-999.0,96,-99.99,,,0.00,0,weatherlink.com 1.10,2013-07-04 06:17:00,
2013-07-04 02:32:00,63.6,63.0,30.05,WSW,256,0.0,-999.0,96,-99.99,,,0.00,0,weatherlink.com 1.10,2013-07-04 06:32:00,
2013-07-04 02:47:00,63.6,63.0,30.05,WSW,256,0.0,-999.0,96,-99.99,,,0.00,0,weatherlink.com 1.10,2013-07-04 06:47:00,
2013-07-04 03:02:00,63.1,62.0,30.05,WSW,256,0.0,-999.0,96,-99.99,,,0.00,0,weatherlink.com 1.10,2013-07-04 07:02:00,
2013-07-04 03:17:00,63.2,62.0,30.05,WSW,256,0.0,-999.0,97,-99.99,,,0.00,0,weatherlink.com 1.10,2013-07-04 07:17:00,
2013-07-04 03:32:00,63.0,62.0,30.05,WSW,256,0.0,-999.0,96,-99.99,,,0.00,0,weatherlink.com 1.10,2013-07-04 07:32:00,
2013-07-04 03:47:00,62.9,62.0,30.05,WSW,256,0.0,-999.0,97,-99.99,,,0.00,0,weatherlink.com 1.10,2013-07-04 07:47:00,
2013-07-04 04:03:00,62.7,62.0,30.05,WSW,256,0.0,-999.0,97,-99.99,,,0.00,0,weatherlink.com 1.10,2013-07-04 08:03:00,
2013-07-04 04:18:00,62.1,61.0,30.06,WSW,256,0.0,-999.0,97,-99.99,,,0.00,0,weatherlink.com 1.10,2013-07-04 08:18:00,
2013-07-04 04:33:00,62.5,62.0,30.06,WSW,256,0.0,-999.0,97,-99.99,,,0.00,0,weatherlink.com 1.10,2013-07-04 08:33:00,
2013-07-04 04:48:00,62.5,62.0,30.06,WSW,256,0.0,-999.0,97,-99.99,,,0.00,0,weatherlink.com 1.10,2013-07-04 08:48:00,
2013-07-04 05:03:00,62.2,61.0,30.06,WSW,256,0.0,-999.0,97,-99.99,,,0.00,0,weatherlink.com 1.10,2013-07-04 09:03:00,
2013-07-04 05:18:00,62.1,61.0,30.06,WSW,256,0.0,-999.0,97,-99.99,,,0.00,0,weatherlink.com 1.10,2013-07-04 09:18:00,
2013-07-04 05:33:00,62.4,62.0,30.06,WSW,256,0.0,-999.0,97,-99.99,,,0.00,0,weatherlink.com 1.10,2013-07-04 09:33:00,
2013-07-04 05:48:00,62.4,62.0,30.07,WSW,256,0.0,-999.0,97,-99.99,,,0.00,0,weatherlink.com 1.10,2013-07-04 09:48:00,
2013-07-04 06:03:00,62.2,61.0,30.07,WSW,256,0.0,-999.0,97,-99.99,,,0.00,0,weatherlink.com 1.10,2013-07-04 10:03:00,
2013-07-04 06:18:00,62.2,61.0,30.07,WSW,256,0.0,-999.0,97,-99.99,,,0.00,0,weatherlink.com 1.10,2013-07-04 10:18:00,
2013-07-04 06:33:00,61.8,61.0,30.07,WSW,256,0.0,-999.0,97,-99.99,,,0.00,7,weatherlink.com 1.10,2013-07-04 10:33:00,
2013-07-04 06:48:00,61.6,61.0,30.08,WSW,256,0.0,-999.0,97,-99.99,,,0.00,12,weatherlink.com 1.10,2013-07-04 10:48:00,
2013-07-04 07:03:00,61.5,61.0,30.08,WSW,256,0.0,-999.0,98,-99.99,,,0.00,21,weatherlink.com 1.10,2013-07-04 11:03:00,
2013-07-04 07:18:00,61.3,61.0,30.08,WSW,256,0.0,-999.0,97,-99.99,,,0.00,39,weatherlink.com 1.10,2013-07-04 11:18:00,
2013-07-04 07:33:00,61.4,61.0,30.08,WSW,256,0.0,-999.0,97,-99.99,,,0.00,46,weatherlink.com 1.10,2013-07-04 11:33:00,
2013-07-04 07:48:00,61.6,61.0,30.09,WSW,256,0.0,-999.0,98,-99.99,,,0.00,53,weatherlink.com 1.10,2013-07-04 11:48:00,
2013-07-04 08:03:00,61.9,61.0,30.09,WSW,256,0.0,-999.0,98,-99.99,,,0.00,76,weatherlink.com 1.10,2013-07-04 12:03:00,
2013-07-04 08:18:00,62.2,62.0,30.09,WSW,256,0.0,-999.0,98,-99.99,,,0.00,93,weatherlink.com 1.10,2013-07-04 12:18:00,
2013-07-04 08:33:00,62.7,62.0,30.10,WSW,256,0.0,-999.0,98,-99.99,,,0.00,105,weatherlink.com 1.10,2013-07-04 12:33:00,
2013-07-04 08:48:00,63.4,63.0,30.11,WSW,256,0.0,-999.0,98,-99.99,,,0.00,127,weatherlink.com 1.10,2013-07-04 12:48:00,
2013-07-04 09:03:00,64.4,64.0,30.11,WSW,256,0.0,-999.0,98,-99.99,,,0.00,174,weatherlink.com 1.10,2013-07-04 13:03:00,
2013-07-04 09:18:00,65.6,65.0,30.11,WSW,250,0.0,-999.0,98,-99.99,,,0.00,169,weatherlink.com 1.10,2013-07-04 13:18:00,
2013-07-04 09:33:00,66.4,66.0,30.11,WSW,250,0.0,-999.0,98,-99.99,,,0.00,239,weatherlink.com 1.10,2013-07-04 13:33:00,
2013-07-04 09:48:00,67.1,67.0,30.11,SW,233,0.0,-999.0,98,-99.99,,,0.00,320,weatherlink.com 1.10,2013-07-04 13:48:00,
2013-07-04 10:03:00,68.4,68.0,30.10,SW,233,0.0,-999.0,98,-99.99,,,0.00,436,weatherlink.com 1.10,2013-07-04 14:03:00,
2013-07-04 10:18:00,70.0,68.0,30.10,SW,226,0.0,-999.0,94,-99.99,,,0.00,489,weatherlink.com 1.10,2013-07-04 14:18:00,
2013-07-04 10:33:00,71.2,67.0,30.10,SSE,147,0.0,-999.0,85,-99.99,,,0.00,417,weatherlink.com 1.10,2013-07-04 14:33:00,
2013-07-04 10:48:00,72.1,66.0,30.10,SSE,168,0.0,-999.0,80,-99.99,,,0.00,429,weatherlink.com 1.10,2013-07-04 14:48:00,
2013-07-04 11:03:00,72.8,65.0,30.10,South,186,0.0,-999.0,77,-99.99,,,0.00,545,weatherlink.com 1.10,2013-07-04 15:03:00,
2013-07-04 11:18:00,73.6,64.0,30.11,SSE,161,0.0,-999.0,73,-99.99,,,0.00,679,weatherlink.com 1.10,2013-07-04 15:18:00,
2013-07-04 11:33:00,75.0,64.0,30.11,South,189,0.0,-999.0,68,-99.99,,,0.00,325,weatherlink.com 1.10,2013-07-04 15:33:00,
2013-07-04 11:48:00,74.8,63.0,30.11,SE,143,0.0,-999.0,67,-99.99,,,0.00,510,weatherlink.com 1.10,2013-07-04 15:48:00,
2013-07-04 12:03:00,76.0,63.0,30.11,SSW,200,0.0,-999.0,65,-99.99,,,0.00,830,weatherlink.com 1.10,2013-07-04 16:03:00,
2013-07-04 12:18:00,76.4,60.0,30.10,ENE,60,0.0,-999.0,58,-99.99,,,0.00,466,weatherlink.com 1.10,2013-07-04 16:18:00,
2013-07-04 12:33:00,76.2,62.0,30.10,NE,48,0.0,-999.0,61,-99.99,,,0.00,508,weatherlink.com 1.10,2013-07-04 16:33:00,
2013-07-04 12:48:00,76.8,62.0,30.10,SE,145,0.0,-999.0,61,-99.99,,,0.00,689,weatherlink.com 1.10,2013-07-04 16:48:00,
2013-07-04 13:03:00,77.4,61.0,30.10,NNE,19,0.0,-999.0,58,-99.99,,,0.00,585,weatherlink.com 1.10,2013-07-04 17:03:00,
2013-07-04 13:18:00,77.8,63.0,30.09,NNE,28,0.0,-999.0,61,-99.99,,,0.00,877,weatherlink.com 1.10,2013-07-04 17:18:00,
2013-07-04 13:33:00,78.3,63.0,30.09,NE,42,3.0,-999.0,60,-99.99,,,0.00,501,weatherlink.com 1.10,2013-07-04 17:33:00,
2013-07-04 13:48:00,77.8,62.0,30.10,NE,52,1.0,-999.0,59,-99.99,,,0.00,473,weatherlink.com 1.10,2013-07-04 17:48:00,
2013-07-04 14:03:00,77.5,61.0,30.11,SSE,166,1.0,-999.0,57,-99.99,,,0.00,524,weatherlink.com 1.10,2013-07-04 18:03:00,
2013-07-04 14:18:00,77.5,63.0,30.09,NE,39,3.0,-999.0,61,-99.99,,,0.00,608,weatherlink.com 1.10,2013-07-04 18:18:00,
2013-07-04 14:33:00,77.8,61.0,30.09,NE,37,4.0,-999.0,57,-99.99,,,0.00,573,weatherlink.com 1.10,2013-07-04 18:33:00,
2013-07-04 14:48:00,77.8,62.0,30.09,ENE,73,1.0,-999.0,58,-99.99,,,0.00,606,weatherlink.com 1.10,2013-07-04 18:48:00,
2013-07-04 15:03:00,77.9,61.0,30.08,NNE,31,0.0,-999.0,57,-99.99,,,0.00,434,weatherlink.com 1.10,2013-07-04 19:03:00,
2013-07-04 15:18:00,78.8,62.0,30.08,ENE,66,0.0,-999.0,56,-99.99,,,0.00,355,weatherlink.com 1.10,2013-07-04 19:18:00,
2013-07-04 15:33:00,77.4,60.0,30.07,NNE,32,3.0,-999.0,56,-99.99,,,0.00,339,weatherlink.com 1.10,2013-07-04 19:33:00,
2013-07-04 15:48:00,77.8,61.0,30.07,SE,132,0.0,-999.0,56,-99.99,,,0.00,348,weatherlink.com 1.10,2013-07-04 19:48:00,
2013-07-04 16:03:00,78.3,61.0,30.07,East,99,0.0,-999.0,56,-99.99,,,0.00,327,weatherlink.com 1.10,2013-07-04 20:03:00,
2013-07-04 16:18:00,78.7,64.0,30.07,ESE,114,0.0,-999.0,60,-99.99,,,0.00,325,weatherlink.com 1.10,2013-07-04 20:18:00,
2013-07-04 16:33:00,78.3,61.0,30.07,NE,47,3.0,-999.0,55,-99.99,,,0.00,318,weatherlink.com 1.10,2013-07-04 20:33:00,
2013-07-04 16:48:00,78.5,61.0,30.06,NE,56,1.0,-999.0,56,-99.99,,,0.00,325,weatherlink.com 1.10,2013-07-04 20:48:00,
2013-07-04 17:03:00,78.2,63.0,30.06,NE,37,0.0,-999.0,60,-99.99,,,0.00,343,weatherlink.com 1.10,2013-07-04 21:03:00,
2013-07-04 17:18:00,77.8,63.0,30.05,ENE,64,0.0,-999.0,60,-99.99,,,0.00,308,weatherlink.com 1.10,2013-07-04 21:18:00,
2013-07-04 17:33:00,77.9,63.0,30.05,ENE,66,0.0,-999.0,60,-99.99,,,0.00,262,weatherlink.com 1.10,2013-07-04 21:33:00,
2013-07-04 17:48:00,77.4,63.0,30.05,ENE,66,0.0,-999.0,61,-99.99,,,0.00,239,weatherlink.com 1.10,2013-07-04 21:48:00,
2013-07-04 18:03:00,77.2,63.0,30.04,ENE,66,0.0,-999.0,62,-99.99,,,0.00,211,weatherlink.com 1.10,2013-07-04 22:03:00,
2013-07-04 18:18:00,77.3,66.0,30.04,ENE,66,0.0,-999.0,68,-99.99,,,0.00,149,weatherlink.com 1.10,2013-07-04 22:18:00,
2013-07-04 18:33:00,76.6,63.0,30.04,ENE,66,0.0,-999.0,64,-99.99,,,0.00,144,weatherlink.com 1.10,2013-07-04 22:33:00,
2013-07-04 18:48:00,76.4,64.0,30.04,ENE,66,0.0,-999.0,65,-99.99,,,0.00,97,weatherlink.com 1.10,2013-07-04 22:48:00,
2013-07-04 19:03:00,76.4,68.0,30.05,ENE,66,0.0,-999.0,76,-99.99,,,0.00,123,weatherlink.com 1.10,2013-07-04 23:03:00,
2013-07-04 19:18:00,75.0,64.0,30.03,ENE,66,0.0,-999.0,69,-99.99,,,0.00,100,weatherlink.com 1.10,2013-07-04 23:18:00,
2013-07-04 19:33:00,75.1,65.0,30.03,ENE,66,0.0,-999.0,71,-99.99,,,0.00,91,weatherlink.com 1.10,2013-07-04 23:33:00,
2013-07-04 19:48:00,74.7,65.0,30.03,ENE,66,0.0,-999.0,72,-99.99,,,0.00,83,weatherlink.com 1.10,2013-07-04 23:48:00,
2013-07-04 20:03:00,74.3,65.0,30.03,ENE,66,0.0,-999.0,73,-99.99,,,0.00,60,weatherlink.com 1.10,2013-07-05 00:03:00,
2013-07-04 20:18:00,73.7,65.0,30.03,ENE,66,0.0,-999.0,74,-99.99,,,0.00,46,weatherlink.com 1.10,2013-07-05 00:18:00,
2013-07-04 20:33:00,72.9,65.0,30.03,ENE,66,0.0,-999.0,77,-99.99,,,0.00,33,weatherlink.com 1.10,2013-07-05 00:33:00,
2013-07-04 20:48:00,72.7,67.0,30.04,ENE,66,0.0,-999.0,82,-99.99,,,0.00,16,weatherlink.com 1.10,2013-07-05 00:48:00,
2013-07-04 21:03:00,71.5,65.0,30.04,ENE,66,0.0,-999.0,80,-99.99,,,0.00,5,weatherlink.com 1.10,2013-07-05 01:03:00,
2013-07-04 21:18:00,71.1,65.0,30.04,ENE,66,0.0,-999.0,81,-99.99,,,0.00,5,weatherlink.com 1.10,2013-07-05 01:18:00,
2013-07-04 21:33:00,71.2,66.0,30.04,ENE,66,0.0,-999.0,84,-99.99,,,0.00,0,weatherlink.com 1.10,2013-07-05 01:33:00,
2013-07-04 21:48:00,70.5,67.0,30.04,ENE,66,0.0,-999.0,87,-99.99,,,0.00,0,weatherlink.com 1.10,2013-07-05 01:48:00,
2013-07-04 22:03:00,70.5,67.0,30.04,ENE,66,0.0,-999.0,88,-99.99,,,0.00,0,weatherlink.com 1.10,2013-07-05 02:03:00,
2013-07-04 22:18:00,70.3,67.0,30.04,ENE,66,0.0,-999.0,88,-99.99,,,0.00,0,weatherlink.com 1.10,2013-07-05 02:18:00,
2013-07-04 22:33:00,70.4,67.0,30.05,ENE,66,0.0,-999.0,89,-99.99,,,0.00,0,weatherlink.com 1.10,2013-07-05 02:33:00,
2013-07-04 22:48:00,70.2,65.0,30.05,ENE,66,0.0,-999.0,84,-99.99,,,0.00,0,weatherlink.com 1.10,2013-07-05 02:48:00,
2013-07-04 23:03:00,70.2,65.0,30.05,ENE,66,0.0,-999.0,84,-99.99,,,0.00,0,weatherlink.com 1.10,2013-07-05 03:03:00,
2013-07-04 23:18:00,69.9,65.0,30.05,ENE,66,0.0,-999.0,85,-99.99,,,0.00,0,weatherlink.com 1.10,2013-07-05 03:18:00,
2013-07-04 23:33:00,69.6,65.0,30.05,ENE,66,0.0,-999.0,84,-99.99,,,0.00,0,weatherlink.com 1.10,2013-07-05 03:33:00,
2013-07-04 23:48:00,69.5,65.0,30.04,ENE,66,0.0,-999.0,85,-99.99,,,0.00,0,weatherlink.com 1.10,2013-07-05 03:48:00,